| time (UTC) | temp F | wind direction | speed MPH | gust MPH | rain 1hr in | rain 24hr in | rain mn in | humidity % | barometer mb |
| 20260508014554 | 70 | 90 | 2.0 | 4.0 | 0.00 | 0.00 | 0.00 | 55 | 1017.1 |
| 20260508013056 | 70 | 103 | 0.0 | 3.0 | 0.00 | 0.00 | 0.00 | 56 | 1017.3 |
| 20260508011545 | 70 | 63 | 0.0 | 2.0 | 0.00 | 0.00 | 0.00 | 53 | 1017.4 |
| 20260508010041 | 70 | 0 | 1.0 | 4.0 | 0.00 | 0.00 | 0.00 | 56 | 1017.6 |
| 20260508004542 | 69 | 63 | 1.0 | 4.0 | 0.00 | 0.00 | 0.00 | 57 | 1017.6 |
| 20260508003045 | 69 | 87 | 1.0 | 6.0 | 0.00 | 0.00 | 0.00 | 60 | 1017.7 |
| 20260508001552 | 69 | 0 | 2.0 | 6.0 | 0.00 | 0.00 | 0.00 | 56 | 1017.8 |
| 20260508000048 | 69 | 24 | 2.0 | 9.0 | 0.00 | 0.00 | 0.00 | 56 | 1017.9 |
| 20260507234542 | 68 | 89 | 1.0 | 8.0 | 0.00 | 0.00 | 0.00 | 55 | 1017.9 |
| 20260507233049 | 68 | 19 | 3.0 | 8.0 | 0.00 | 0.00 | 0.00 | 55 | 1018.3 |
| 20260507231547 | 68 | 81 | 2.0 | 7.0 | 0.00 | 0.00 | 0.00 | 54 | 1018.4 |
| 20260507230052 | 68 | 97 | 3.0 | 7.0 | 0.00 | 0.00 | 0.00 | 59 | 1018.7 |
| 20260507224543 | 67 | 360 | 2.0 | 6.0 | 0.00 | 0.00 | 0.00 | 56 | 1018.9 |
| 20260507223048 | 66 | 53 | 3.0 | 6.0 | 0.00 | 0.00 | 0.00 | 58 | 1019.0 |
| 20260507221542 | 66 | 42 | 3.0 | 8.0 | 0.00 | 0.00 | 0.00 | 61 | 1019.2 |
| 20260507220048 | 65 | 40 | 2.0 | 7.0 | 0.00 | 0.00 | 0.00 | 58 | 1019.5 |
| 20260507214549 | 65 | 37 | 2.0 | 7.0 | 0.00 | 0.00 | 0.00 | 58 | 1019.7 |
| 20260507213053 | 64 | 40 | 2.0 | 6.0 | 0.00 | 0.00 | 0.00 | 61 | 1019.8 |
| 20260507211552 | 64 | 84 | 2.0 | 6.0 | 0.00 | 0.00 | 0.00 | 63 | 1019.9 |
| 20260507210043 | 63 | 51 | 3.0 | 9.0 | 0.00 | 0.00 | 0.00 | 60 | 1020.0 |
| 20260507204548 | 63 | 91 | 2.0 | 7.0 | 0.00 | 0.00 | 0.00 | 59 | 1020.2 |
| 20260507203048 | 62 | 119 | 3.0 | 7.0 | 0.00 | 0.00 | 0.00 | 63 | 1020.4 |
| 20260507201548 | 62 | 105 | 2.0 | 7.0 | 0.00 | 0.00 | 0.00 | 61 | 1020.6 |
| 20260507200047 | 61 | 74 | 3.0 | 7.0 | 0.00 | 0.00 | 0.00 | 62 | 1020.8 |
| 20260507194544 | 61 | 120 | 5.0 | 9.0 | 0.00 | 0.00 | 0.00 | 63 | 1020.9 |
| 20260507193044 | 61 | 46 | 2.0 | 8.0 | 0.00 | 0.00 | 0.00 | 64 | 1020.9 |
| 20260507191543 | 60 | 113 | 3.0 | 8.0 | 0.00 | 0.00 | 0.00 | 62 | 1021.1 |
| 20260507190042 | 59 | 175 | 2.0 | 6.0 | 0.00 | 0.00 | 0.00 | 62 | 1021.2 |
| 20260507184547 | 60 | 96 | 3.0 | 8.0 | 0.00 | 0.00 | 0.00 | 61 | 1021.4 |
| 20260507183053 | 59 | 352 | 2.0 | 6.0 | 0.00 | 0.00 | 0.00 | 62 | 1021.5 |
| 20260507181549 | 59 | 0 | 1.0 | 4.0 | 0.00 | 0.00 | 0.00 | 61 | 1021.6 |
| 20260507180053 | 57 | 188 | 0.0 | 5.0 | 0.00 | 0.00 | 0.00 | 61 | 1021.9 |
| 20260507174548 | 57 | 55 | 1.0 | 5.0 | 0.00 | 0.00 | 0.00 | 62 | 1021.9 |
| 20260507173058 | 56 | 46 | 0.0 | 8.0 | 0.00 | 0.00 | 0.00 | 65 | 1022.1 |
| 20260507171552 | 56 | 11 | 3.0 | 7.0 | 0.00 | 0.00 | 0.00 | 69 | 1022.1 |
| 20260507170051 | 55 | 90 | 1.0 | 8.0 | 0.00 | 0.00 | 0.00 | 67 | 1022.0 |
| 20260507164542 | 54 | 33 | 2.0 | 6.0 | 0.00 | 0.00 | 0.00 | 68 | 1022.1 |
| 20260507163047 | 52 | 25 | 3.0 | 7.0 | 0.00 | 0.00 | 0.00 | 72 | 1022.1 |
| 20260507161553 | 52 | 26 | 3.0 | 9.0 | 0.00 | 0.00 | 0.00 | 74 | 1022.1 |
| 20260507160051 | 51 | 24 | 2.0 | 6.0 | 0.00 | 0.00 | 0.00 | 74 | 1022.0 |
| 20260507154547 | 50 | 339 | 4.0 | 10.0 | 0.00 | 0.00 | 0.00 | 73 | 1022.2 |
| 20260507153047 | 50 | 5 | 1.0 | 8.0 | 0.00 | 0.00 | 0.00 | 76 | 1022.3 |
| 20260507151541 | 49 | 352 | 4.0 | 9.0 | 0.00 | 0.00 | 0.00 | 76 | 1022.2 |
| 20260507150043 | 49 | 15 | 2.0 | 5.0 | 0.00 | 0.00 | 0.00 | 78 | 1022.2 |
| 20260507144549 | 48 | 306 | 1.0 | 8.0 | 0.00 | 0.00 | 0.00 | 79 | 1022.1 |
| 20260507143100 | 48 | 311 | 2.0 | 7.0 | 0.00 | 0.00 | 0.00 | 80 | 1022.1 |
| 20260507141549 | 47 | 289 | 2.0 | 7.0 | 0.00 | 0.00 | 0.00 | 80 | 1022.0 |
| 20260507140046 | 47 | 313 | 3.0 | 8.0 | 0.00 | 0.00 | 0.00 | 81 | 1022.0 |
| 20260507134543 | 47 | 293 | 2.0 | 7.0 | 0.00 | 0.00 | 0.00 | 80 | 1021.9 |
| 20260507133051 | 47 | 328 | 2.0 | 4.0 | 0.00 | 0.00 | 0.00 | 81 | 1021.7 |
| 20260507131550 | 47 | 307 | 0.0 | 4.0 | 0.00 | 0.00 | 0.00 | 81 | 1021.7 |
| 20260507130100 | 47 | 0 | 1.0 | 4.0 | 0.00 | 0.00 | 0.00 | 81 | 1021.7 |
| 20260507124555 | 47 | 0 | 0.0 | 3.0 | 0.00 | 0.00 | 0.00 | 82 | 1021.5 |
| 20260507123046 | 47 | 24 | 1.0 | 3.0 | 0.00 | 0.00 | 0.00 | 80 | 1021.6 |
| 20260507121546 | 48 | 345 | 2.0 | 5.0 | 0.00 | 0.00 | 0.00 | 79 | 1021.7 |
| 20260507120042 | 48 | 347 | 0.0 | 7.0 | 0.00 | 0.00 | 0.00 | 79 | 1021.8 |
| 20260507114548 | 49 | 22 | 3.0 | 9.0 | 0.00 | 0.00 | 0.00 | 78 | 1022.0 |
| 20260507113055 | 49 | 350 | 2.0 | 9.0 | 0.00 | 0.00 | 0.00 | 78 | 1022.0 |
| 20260507111544 | 49 | 324 | 2.0 | 6.0 | 0.00 | 0.00 | 0.00 | 77 | 1022.0 |
| 20260507110057 | 50 | 352 | 2.0 | 9.0 | 0.00 | 0.00 | 0.00 | 78 | 1022.1 |
| 20260507104552 | 50 | 9 | 2.0 | 6.0 | 0.00 | 0.00 | 0.00 | 77 | 1022.1 |
| 20260507103114 | 50 | 13 | 1.0 | 8.0 | 0.00 | 0.00 | 0.00 | 77 | 1022.2 |
| 20260507101547 | 50 | 0 | 1.0 | 5.0 | 0.00 | 0.00 | 0.00 | 77 | 1022.4 |
| 20260507100106 | 50 | 360 | 1.0 | 6.0 | 0.00 | 0.00 | 0.00 | 79 | 1022.4 |
| 20260507094549 | 51 | 5 | 3.0 | 7.0 | 0.00 | 0.00 | 0.00 | 78 | 1022.5 |
| 20260507093045 | 51 | 350 | 2.0 | 5.0 | 0.00 | 0.00 | 0.00 | 78 | 1022.5 |
| 20260507091545 | 51 | 346 | 2.0 | 7.0 | 0.00 | 0.00 | 0.00 | 78 | 1022.6 |
| 20260507090048 | 51 | 332 | 2.0 | 7.0 | 0.00 | 0.00 | 0.00 | 78 | 1022.8 |
| 20260507084546 | 51 | 327 | 2.0 | 6.0 | 0.00 | 0.00 | 0.00 | 77 | 1022.8 |
| 20260507083050 | 51 | 352 | 2.0 | 8.0 | 0.00 | 0.00 | 0.00 | 77 | 1022.8 |
| 20260507081552 | 51 | 352 | 2.0 | 7.0 | 0.00 | 0.00 | 0.00 | 78 | 1022.8 |
| 20260507080054 | 51 | 5 | 2.0 | 7.0 | 0.00 | 0.00 | 0.00 | 78 | 1022.8 |
| 20260507074552 | 51 | 294 | 3.0 | 8.0 | 0.00 | 0.00 | 0.00 | 79 | 1022.7 |
| 20260507073044 | 51 | 5 | 2.0 | 6.0 | 0.00 | 0.00 | 0.00 | 79 | 1022.6 |
| 20260507071549 | 51 | 5 | 2.0 | 4.0 | 0.00 | 0.00 | 0.00 | 80 | 1022.5 |
| 20260507064551 | 51 | 35 | 2.0 | 8.0 | 0.00 | 0.00 | 0.00 | 81 | 1022.5 |
| 20260507063047 | 51 | 21 | 2.0 | 4.0 | 0.00 | 0.00 | 0.00 | 83 | 1022.4 |
| 20260507061542 | 51 | 0 | 2.0 | 9.0 | 0.00 | 0.00 | 0.00 | 82 | 1022.4 |
| 20260507060043 | 52 | 352 | 3.0 | 8.0 | 0.00 | 0.00 | 0.00 | 82 | 1022.6 |
| 20260507054605 | 52 | 331 | 3.0 | 9.0 | 0.00 | 0.00 | 0.00 | 82 | 1022.6 |
| 20260507053054 | 52 | 336 | 3.0 | 8.0 | 0.00 | 0.00 | 0.00 | 81 | 1022.5 |
| 20260507051554 | 52 | 46 | 4.0 | 9.0 | 0.00 | 0.00 | 0.00 | 81 | 1022.5 |
| 20260507050050 | 53 | 348 | 1.0 | 6.0 | 0.00 | 0.00 | 0.00 | 81 | 1022.3 |
| 20260507044551 | 54 | 345 | 3.0 | 8.0 | 0.00 | 0.00 | 0.00 | 80 | 1022.4 |
| 20260507043045 | 55 | 352 | 1.0 | 5.0 | 0.00 | 0.00 | 0.00 | 79 | 1022.5 |
| 20260507041558 | 55 | 304 | 2.0 | 7.0 | 0.00 | 0.00 | 0.00 | 79 | 1022.5 |
| 20260507040043 | 56 | 311 | 2.0 | 11.0 | 0.00 | 0.00 | 0.00 | 78 | 1022.2 |
| 20260507034546 | 56 | 0 | 2.0 | 8.0 | 0.00 | 0.00 | 0.00 | 77 | 1022.0 |
| 20260507033043 | 56 | 350 | 1.0 | 4.0 | 0.00 | 0.00 | 0.00 | 77 | 1021.9 |
| 20260507031543 | 57 | 352 | 1.0 | 6.0 | 0.00 | 0.00 | 0.00 | 76 | 1021.7 |
| 20260507030050 | 58 | 309 | 2.0 | 9.0 | 0.00 | 0.00 | 0.00 | 75 | 1021.6 |
| 20260507024551 | 59 | 297 | 3.0 | 6.0 | 0.00 | 0.00 | 0.00 | 73 | 1021.4 |
| 20260507023047 | 61 | 352 | 1.0 | 8.0 | 0.00 | 0.00 | 0.00 | 72 | 1021.4 |
| 20260507021559 | 62 | 289 | 1.0 | 6.0 | 0.00 | 0.00 | 0.00 | 70 | 1021.4 |
| 20260507020106 | 62 | 285 | 3.0 | 9.0 | 0.00 | 0.00 | 0.00 | 69 | 1021.4 |
| 20260507014618 | 64 | 298 | 4.0 | 9.0 | 0.00 | 0.00 | 0.00 | 66 | 1021.4 |